Location: Ettringen
(48.1054°N, 10.6545°E)
Time: 21:40:10
(UTC+00:00)

Iridium 4 Rocket - Pass Details

Date: 18 November 2025
Orbit: 579 x 888 km, 86.9° (Epoch: 10 December)

Event Time Altitude Azimuth Distance (km) Brightness Sun altitude
Rises 16:11:53 0° 191° (S) 3,229 7.2 -6.2°
Reaches altitude 10° 16:14:21 10° 195° (SSW) 2,258 6.5 -6.6°
Maximum altitude 16:19:17 60° 275° (W) 803 4.0 -7.4°
Drops below altitude 10° 16:23:51 10° 356° (N) 2,082 5.6 -8.1°
Sets 16:26:03 0° 0° (N) 2,956 6.3 -8.5°
